Wind_Speed
18 18 17 17 17 16 16 16 15 15 15 14 14 14 13 13 12 12 11 11 10 10 9 9 9 9 9 9 9 9 9 9 9 9 9 9 9 9 9 9 9 9 9
20 19 19 18 18 18 17 17 17 16 16 16 15 15 15 14 14 14 13 13 12 12 12 12 12 11 11 12 11 11 11 11 11 11 11 11 11 10 10 11 10 10 11
21 21 21 20 20 19 19 19 19 18 18 17 17 17 16 16 15 15 15 15 14 14 14 13 13 13 13 13 13 13 12 12 13 13 13 13 13 13 12 12 12 13 13
22 22 22 22 22 21 21 20 20 20 19 19 18 18 18 18 17 16 16 16 16 16 15 15 15 15 14 14 15 15 15 15 14 14 15 15 15 15 14 15 15 15 15
23 23 23 23 23 23 23 22 22 21 21 20 20 20 19 19 18 18 18 18 17 17 17 17 17 17 16 16 16 16 17 17 17 16 16 16 16 16 16 17 16 16 17
24 24 23 23 24 24 24 24 23 23 23 22 22 22 21 21 21 20 20 19 19 19 19 19 19 19 19 19 18 18 18 18 18 18 18 18 18 18 18 18 18 18 18
26 26 25 25 25 25 25 25 25 25 24 24 24 24 23 23 23 23 22 22 21 21 21 22 22 21 21 21 21 21 21 20 20 20 20 20 20 20 20 20 20 21 21
27 27 27 26 26 26 26 26 26 26 25 25 25 24 24 24 24 25 24 24 24 24 24 24 24 24 23 23 23 23 23 23 23 23 23 23 23 23 23 23 23 23 23
29 28 28 28 28 28 27 27 27 27 28 27 27 27 26 27 26 26 26 26 26 26 25 25 25 25 25 25 25 25 25 25 25 25 25 25 25 25 25 25 25 25 24
30 30 30 30 30 30 30 30 29 29 29 29 29 29 29 29 29 29 28 28 28 28 28 27 27 27 27 27 27 27 28 28 28 28 28 28 28 27 27 27 27 26 26
32 32 32 31 32 32 32 31 31 31 31 31 31 31 31 30 30 30 30 30 29 29 29 29 29 29 30 30 30 30 30 30 31 31 31 31 30 30 30 29 29 28 28
33 33 33 33 33 33 33 33 33 33 32 32 32 32 32 32 32 32 32 32 32 32 31 31 32 32 32 32 32 32 33 33 33 33 34 33 33 33 32 32 31 31 31
33 33 33 33 34 34 34 34 34 34 34 34 34 34 34 33 34 34 34 34 34 34 34 34 34 34 34 34 35 35 35 35 35 35 36 36 36 35 35 35 34 33 33
34 34 34 34 35 35 35 35 35 35 35 36 35 35 35 35 35 35 35 36 36 36 36 36 37 37 37 37 37 37 38 38 37 37 37 37 37 37 37 37 36 36 35
34 35 35 36 36 36 36 36 36 36 36 36 37 36 36 36 36 37 37 38 38 38 38 39 39 39 40 40 40 40 41 40 40 40 39 39 39 39 39 38 38 38 38
34 35 35 36 36 37 37 36 37 37 37 37 37 37 38 38 39 39 39 39 40 40 41 41 42 42 42 43 43 43 43 43 43 43 43 43 43 42 42 41 40 40 40
34 35 35 36 36 37 37 37 37 38 38 38 38 39 39 40 40 40 41 41 41 42 42 43 43 44 44 44 45 45 45 46 46 46 46 46 46 45 45 44 44 43 43
35 35 36 36 37 37 38 38 38 39 40 40 40 40 41 41 42 42 42 42 43 43 44 44 45 45 46 47 47 48 48 48 49 49 48 48 48 48 47 47 47 46 46
36 37 37 37 38 38 38 39 39 40 40 41 41 42 43 43 43 44 44 44 45 45 46 46 47 47 48 49 50 50 51 51 51 51 51 51 51 50 50 50 49 49 48
36 38 39 39 39 39 40 40 40 41 42 42 43 44 45 45 45 46 46 47 47 47 48 49 50 50 51 52 52 53 53 53 53 53 52 52 52 52 52 52 51 51 50
36 38 39 40 40 41 41 41 42 43 43 44 45 46 46 47 47 47 48 49 49 50 50 51 51 52 52 53 54 54 54 54 53 52 53 53 53 53 53 53 53 53 53
38 38 39 41 42 42 42 43 43 44 44 45 45 46 47 47 47 48 49 49 50 51 51 51 52 52 53 54 55 55 54 53 53 53 53 54 54 54 54 54 54 54 55
39 39 40 41 42 43 43 43 43 44 45 46 46 47 47 48 48 48 49 49 50 51 51 51 52 53 53 53 52 53 54 54 54 54 54 55 56 56 57 57 57 57 57
40 40 41 41 42 43 43 44 44 45 46 46 47 47 48 48 48 49 49 50 51 51 52 53 54 53 53 53 54 55 55 56 57 56 56 57 58 58 59 59 59 59 59
40 41 41 42 43 44 44 45 45 46 47 47 48 49 49 49 49 50 50 51 52 52 53 53 53 53 54 54 55 56 57 58 58 59 58 58 58 59 59 60 60 60 59
41 42 42 43 43 44 44 44 45 47 48 48 49 50 50 50 51 51 52 53 53 54 54 53 54 54 54 55 56 57 58 58 59 60 60 59 59 59 59 59 59 58 57
Wind_Direction
238 238 238 237 236 236 237 238 239 239 241 242 241 242 244 245 246 245 246 248 250 251 252 251 250 253 258 262 265 267 271 276 279 282 285 286 287 284 283 285 286 286 289
239 239 239 239 238 238 238 239 241 241 242 244 244 245 246 247 247 248 250 253 254 255 256 257 256 257 259 262 264 267 271 275 277 280 281 284 284 283 283 281 282 285 287
240 240 240 241 240 240 239 239 241 242 244 245 246 246 247 248 248 249 251 254 257 258 258 258 259 260 262 263 265 267 271 275 276 279 282 282 281 280 281 281 279 281 284
242 241 242 243 243 242 241 241 242 244 245 246 247 248 248 249 249 250 252 254 257 258 260 260 259 261 263 264 266 267 269 271 274 277 279 280 280 280 280 281 280 279 281
242 242 242 243 244 244 244 244 244 246 247 248 249 249 250 251 251 252 253 254 256 258 260 261 261 262 264 265 266 267 269 270 273 275 276 277 277 279 279 279 279 280 280
242 243 244 244 245 246 246 247 247 247 248 249 250 251 252 253 253 254 254 254 256 257 258 260 262 264 265 266 267 268 270 272 272 274 274 275 275 277 278 277 277 279 280
244 244 245 247 247 248 248 249 249 250 250 250 251 252 253 254 255 255 255 256 257 257 258 260 262 264 265 267 268 269 270 272 273 273 273 274 274 274 275 276 276 277 278
244 245 246 247 249 250 250 251 251 251 251 252 253 253 253 255 256 256 256 258 258 259 259 260 261 263 264 266 268 269 270 271 273 273 273 273 273 274 274 275 276 277 278
245 246 248 249 249 250 251 252 253 253 253 253 254 254 255 256 257 258 257 258 259 260 261 261 261 263 265 266 267 268 269 271 272 274 275 275 275 275 274 275 276 277 278
247 248 249 250 251 251 252 253 253 253 254 254 254 255 256 257 258 259 259 259 260 260 261 262 262 264 265 267 268 269 269 271 272 273 274 275 275 276 275 276 275 276 276
248 249 250 251 252 252 252 253 253 254 254 255 255 256 257 258 259 260 260 260 261 261 262 263 264 265 266 267 269 270 270 271 272 273 273 274 275 275 274 274 275 276 276
249 250 250 251 252 252 253 254 254 255 256 256 257 258 258 258 259 260 260 260 261 262 263 264 264 265 267 268 269 270 270 272 273 273 273 273 273 274 274 274 274 274 275
250 251 251 251 252 253 254 255 256 256 256 257 257 258 259 260 260 261 261 261 262 263 264 265 266 267 268 269 269 270 271 272 273 273 273 274 273 273 272 273 273 273 273
250 251 252 252 253 253 254 255 256 257 257 257 258 259 260 261 261 262 262 263 263 264 265 266 267 267 268 269 269 269 270 271 272 272 273 273 273 272 272 271 271 272 272
250 251 252 253 253 254 254 255 256 257 258 259 259 260 261 262 263 264 264 263 264 265 265 266 266 267 268 269 269 270 270 270 271 272 272 272 272 272 271 271 270 271 271
251 251 252 253 254 255 255 256 256 257 258 259 260 261 262 263 264 265 265 265 266 266 267 268 268 268 269 269 269 270 270 270 270 270 271 271 271 271 271 270 270 270 271
252 252 253 253 254 255 256 256 257 258 259 260 261 262 263 263 264 266 266 267 267 268 268 268 269 269 269 270 270 270 271 271 270 270 270 270 270 270 270 270 269 270 270
253 253 253 253 254 255 256 257 258 259 260 261 262 263 263 264 265 266 267 268 269 269 269 269 269 270 271 271 271 271 271 271 271 271 271 270 269 269 269 269 269 269 270
254 254 254 254 255 256 258 259 260 261 261 262 263 264 265 265 266 267 268 269 269 270 270 270 271 271 272 272 272 272 272 272 272 272 271 270 269 268 268 268 268 268 268
256 256 255 255 256 257 258 260 261 262 263 264 265 266 266 267 267 268 269 270 270 271 271 272 272 272 273 273 273 273 273 273 272 272 271 270 269 268 268 268 268 268 267
259 258 257 256 256 257 258 260 261 263 264 266 266 267 267 268 268 269 270 270 271 271 272 273 273 273 273 273 273 273 273 273 272 272 271 271 269 268 268 268 268 268 268
261 261 259 258 257 257 258 260 261 263 265 266 267 267 268 269 270 270 271 271 272 272 273 274 275 275 275 274 274 272 271 271 271 272 271 270 269 269 269 269 268 268 268
261 261 260 258 257 258 259 260 262 263 264 266 267 269 270 270 271 271 272 272 273 273 274 274 275 276 275 274 273 273 273 272 272 271 271 270 269 268 269 269 269 268 268
262 261 260 259 258 258 259 261 262 263 265 267 269 270 270 271 272 272 272 273 274 274 275 275 276 275 275 274 274 274 274 275 274 272 270 271 270 269 269 269 269 269 268
262 262 261 260 259 259 260 261 263 264 266 267 269 270 271 271 272 272 273 273 274 275 276 275 275 275 275 275 275 275 275 275 275 275 272 270 271 271 270 270 269 269 268
262 262 261 260 260 260 261 262 264 266 267 268 269 270 271 272 273 273 274 274 275 276 276 276 276 276 276 276 276 276 276 276 277 276 274 272 271 271 270 270 269 268 268
Height
5852 5852 5853 5855 5856 5857 5857 5858 5859 5860 5860 5861 5862 5862 5863 5863 5864 5864 5865 5865 5865 5866 5866 5866 5866 5866 5866 5866 5866 5866 5865 5865 5865 5865 5864 5864 5863 5863 5862 5862 5861 5861 5860
5848 5849 5850 5852 5853 5854 5855 5856 5857 5857 5858 5859 5859 5860 5861 5861 5862 5862 5863 5863 5863 5864 5864 5864 5864 5864 5864 5864 5864 5864 5864 5864 5863 5863 5862 5862 5861 5861 5860 5860 5860 5859 5858
5845 5846 5847 5848 5850 5851 5852 5853 5854 5855 5856 5856 5857 5858 5858 5859 5860 5860 5860 5861 5861 5861 5861 5862 5862 5862 5862 5862 5862 5862 5861 5861 5861 5861 5860 5859 5859 5859 5858 5858 5857 5857 5856
5841 5843 5844 5845 5846 5847 5849 5850 5851 5852 5853 5854 5854 5855 5856 5856 5857 5857 5858 5858 5858 5858 5859 5859 5859 5859 5859 5859 5859 5859 5859 5859 5859 5858 5858 5857 5857 5856 5856 5855 5855 5854 5854
5837 5839 5840 5841 5843 5844 5845 5846 5847 5848 5850 5850 5851 5852 5853 5853 5854 5854 5855 5855 5855 5856 5856 5856 5856 5856 5856 5856 5856 5856 5856 5856 5855 5855 5855 5854 5854 5853 5853 5852 5852 5851 5851
5833 5834 5836 5837 5839 5840 5841 5843 5844 5845 5846 5847 5848 5848 5849 5850 5850 5851 5851 5852 5852 5852 5853 5853 5853 5853 5853 5853 5853 5853 5853 5852 5852 5852 5851 5851 5850 5850 5849 5849 5848 5848 5847
5829 5830 5832 5833 5834 5836 5837 5838 5840 5841 5842 5843 5843 5844 5845 5846 5846 5847 5847 5848 5848 5849 5849 5849 5849 5849 5849 5849 5849 5849 5849 5848 5848 5848 5848 5847 5847 5846 5846 5845 5845 5844 5843
5824 5826 5827 5828 5830 5831 5832 5834 5835 5836 5837 5838 5839 5840 5840 5841 5842 5842 5843 5843 5844 5844 5844 5845 5845 5845 5845 5845 5845 5845 5845 5844 5844 5844 5843 5843 5843 5842 5842 5841 5840 5840 5839
5819 5820 5822 5823 5825 5826 5827 5829 5830 5831 5832 5833 5834 5835 5835 5836 5837 5837 5838 5839 5839 5839 5840 5840 5840 5840 5840 5840 5840 5840 5840 5840 5840 5839 5839 5838 5838 5838 5837 5836 5836 5835 5834
5813 5815 5816 5818 5819 5820 5822 5823 5824 5825 5827 5828 5829 5830 5830 5831 5832 5832 5833 5833 5834 5834 5834 5834 5835 5835 5835 5835 5835 5835 5835 5834 5834 5834 5833 5833 5833 5832 5832 5831 5831 5830 5829
5807 5809 5810 5812 5813 5814 5816 5817 5818 5819 5821 5822 5823 5823 5824 5825 5826 5826 5827 5827 5828 5828 5828 5829 5829 5829 5829 5829 5829 5829 5829 5828 5828 5828 5828 5827 5827 5827 5826 5825 5825 5824 5824
5801 5803 5804 5806 5807 5808 5810 5811 5812 5813 5814 5815 5816 5817 5818 5819 5819 5820 5821 5821 5821 5822 5822 5822 5822 5823 5823 5823 5822 5822 5822 5822 5821 5821 5821 5821 5820 5820 5819 5819 5818 5818 5817
5794 5796 5797 5799 5800 5802 5803 5804 5805 5806 5808 5809 5810 5811 5811 5812 5813 5813 5814 5814 5815 5815 5815 5815 5816 5816 5816 5816 5815 5815 5815 5814 5814 5814 5814 5813 5813 5813 5812 5812 5811 5811 5810
5787 5789 5790 5792 5793 5795 5796 5797 5798 5799 5801 5801 5802 5803 5804 5805 5806 5806 5807 5807 5807 5808 5808 5808 5808 5808 5808 5808 5808 5807 5807 5807 5806 5806 5806 5805 5805 5805 5804 5804 5804 5803 5802
5780 5781 5783 5784 5786 5787 5788 5790 5791 5792 5793 5794 5795 5796 5797 5797 5798 5799 5799 5799 5800 5800 5800 5800 5800 5800 5800 5799 5799 5799 5798 5798 5798 5797 5797 5797 5796 5796 5796 5795 5795 5795 5794
5772 5774 5775 5777 5778 5779 5781 5782 5783 5784 5785 5786 5787 5788 5789 5789 5790 5791 5791 5791 5791 5791 5791 5791 5791 5791 5791 5790 5790 5790 5789 5789 5788 5788 5788 5787 5787 5787 5786 5786 5786 5786 5785
5764 5766 5767 5769 5770 5771 5773 5774 5775 5776 5777 5778 5779 5780 5780 5781 5781 5782 5782 5782 5782 5782 5782 5782 5781 5781 5781 5781 5780 5780 5780 5779 5778 5778 5777 5777 5777 5777 5776 5776 5776 5776 5776
5756 5758 5759 5760 5762 5763 5764 5765 5766 5767 5769 5769 5770 5771 5771 5772 5772 5773 5773 5773 5773 5772 5772 5772 5771 5771 5770 5770 5770 5769 5769 5768 5768 5767 5766 5766 5766 5766 5766 5765 5765 5766 5766
5746 5748 5750 5751 5753 5754 5755 5756 5758 5758 5759 5760 5761 5762 5762 5762 5762 5763 5763 5763 5762 5762 5762 5761 5761 5760 5759 5759 5758 5758 5757 5757 5756 5755 5755 5754 5754 5754 5754 5754 5754 5754 5754
5737 5738 5740 5741 5743 5744 5746 5747 5748 5749 5750 5751 5751 5752 5752 5752 5752 5752 5752 5752 5751 5751 5750 5750 5749 5748 5747 5746 5745 5745 5745 5744 5743 5742 5742 5741 5741 5741 5741 5741 5741 5742 5742
5727 5728 5729 5731 5732 5734 5735 5737 5738 5739 5740 5741 5741 5741 5741 5741 5741 5741 5741 5740 5740 5739 5739 5738 5736 5736 5735 5733 5731 5731 5731 5730 5730 5729 5728 5728 5728 5727 5727 5727 5727 5728 5728
5717 5718 5719 5720 5721 5723 5725 5727 5728 5729 5730 5730 5730 5730 5730 5730 5730 5729 5729 5728 5727 5727 5726 5725 5723 5722 5721 5719 5717 5716 5717 5718 5717 5716 5715 5714 5714 5714 5713 5713 5713 5713 5713
5707 5708 5708 5709 5710 5712 5714 5716 5717 5718 5718 5719 5719 5719 5719 5718 5718 5717 5716 5716 5715 5714 5713 5712 5710 5708 5707 5705 5703 5702 5702 5703 5703 5703 5702 5701 5700 5700 5700 5699 5698 5698 5698
5697 5697 5697 5698 5699 5701 5703 5704 5706 5707 5707 5708 5708 5707 5707 5706 5706 5705 5704 5703 5702 5701 5700 5698 5696 5694 5692 5692 5690 5688 5687 5687 5686 5687 5689 5687 5685 5685 5685 5684 5683 5683 5683
5686 5686 5686 5687 5688 5690 5692 5693 5694 5695 5695 5696 5695 5695 5695 5694 5693 5692 5691 5690 5689 5687 5686 5684 5682 5680 5679 5678 5676 5674 5673 5671 5670 5669 5671 5672 5670 5669 5669 5668 5668 5667 5666
5675 5675 5675 5676 5677 5679 5680 5681 5682 5683 5683 5683 5683 5682 5682 5681 5680 5679 5678 5676 5675 5673 5672 5670 5668 5667 5665 5663 5662 5660 5658 5656 5654 5652 5652 5654 5654 5654 5652 5652 5651 5651 5650